Regional Weather Roundup
Issued by NWS

Home | Current Version | Previous Version | Text Only | Print | Product List | Glossary On
Versions: 1 2 3 4 5 6 7 8 9 10 11 12 13 14 15 16 17 18 19 20 21 22 23 24 25 26 27 28 29 30 31 32 33 34 35 36 37 38 39 40 41 42 43 44 45 46 47 48 49 50
000
ASUS45 KSLC 261610
RWRUT

UTAH REGIONAL WEATHER ROUNDUP
NATIONAL WEATHER SERVICE SALT LAKE CITY UT
900 AM MST FRI DEC 26 2014

UTZ001>011-023>025-261700-

NORTHERN UTAH

CITY           SKY/WX    TMP DP  RH WIND       PRES   REMARKS
BRIGHAM CITY   CLOUDY    23  14  68 CALM      29.99S
HILL AFB       CLOUDY    23  16  74 VRB3      29.96R
LOGAN          MOCLDY    13  10  88 N8        30.00R WCI   2
OGDEN          CLOUDY    23  18  81 NW8       29.97R WCI  14
PROVO AIRPORT  PTSUNNY   23  18  80 N6        29.95R WCI  16
SALT LAKE CITY MOCLDY    25  21  85 CALM      29.97R
VERNAL         MOSUNNY   22   9  57 NE8       29.87R WCI  12
WENDOVER       MOCLDY    27  12  54 NW23G30   30.04R WCI  12
HEBER CITY     PTSUNNY   19  10  68 E9        29.90R WCI   9
WEST JORDAN    CLOUDY    25  23  93 NW12      29.97R WCI  14

$$

UTZ012>022-026-027-261700-

SOUTHERN/CENTRAL UTAH

CITY           SKY/WX    TMP DP  RH WIND       PRES   REMARKS
BLANDING       SUNNY     21  16  83 E3        29.84R
BRYCE CANYON   MOSUNNY   11   5  77 NW8       29.81R WCI  -1
CEDAR CITY     LGT SNOW  20  17  88 N7        29.92R FOG     WCI  11
DELTA          CLOUDY    22  19  86 NW12      29.97R WCI  11
MILFORD        SNOW      23  20  88 N8        29.97R VSB 1/2 WCI  14
MOAB/CYNLANDS  LGT SNOW  26  25  96 NW5       29.83R FOG     WCI  20
PRICE          CLOUDY    25  10  53 N6        29.82R WCI  18
ST GEORGE      PTSUNNY   30  18  59 CALM      30.02R
KANAB          CLOUDY    23  23 100 CALM      29.94R

$$

REGIONAL REPORTS     COLORADO/ARIZONA

CITY           SKY/WX    TMP DP  RH WIND       PRES   REMARKS
CRAIG, CO      LGT SNOW  16  11  80 W9        29.81S WCI   4
GRAND JUNCTION LGT SNOW  23  21  92 N5        29.81R FOG     WCI  17
RIFLE          CLOUDY    24  15  68 W6        29.80R WCI  17
MONTROSE       LGT SNOW  23  21  92 E6        29.80R FOG     WCI  16
CORTEZ         MOSUNNY   10   7  87 E5        29.77R WCI   2
PAGE, AZ       MOSUNNY   33  11  39 W6        29.86R WCI  28
GRAND CANYON   SUNNY     20  16  84 VRB5      29.85R WCI  13
KINGMAN        SUNNY     34  15  46 NE5       30.01R WCI  30
FLAGSTAFF      SUNNY     20  11  68 VRB6      29.83R WCI  12

$$

REGIONAL REPORTS    NEVADA/IDAHO/WYOMING

CITY           SKY/WX    TMP DP  RH WIND       PRES   REMARKS
LAS VEGAS, NV  MOSUNNY   42  10  27 NW20G25   30.02R
ELY            CLOUDY    16  10  77 NW7       30.01R WCI   6
ELKO           CLOUDY    24  18  77 SW3       30.07R
POCATELLO, ID  MOCLDY     7   5  91 E6        30.06R WCI  -3
BURLEY         CLOUDY    23  18  81 W10       30.05R WCI  12
EVANSTON, WY   MOCLDY    13  10  88 N3        29.85S
ROCK SPRINGS   LGT SNOW  13   9  84 NE15G21   29.86R FOG     WCI  -3

$$


USA.gov is the U.S. government's official web portal to all federal, state and local government web resources and services.